User: anonymous   Login
Location: Unspecified
(0.0000°N, 0.0000°E)
Time: 22:17:59
(UTC+00:00)
Language:

Vela 6B - Orbit

View from above orbital plane
View from above orbital plane
View from above satellite
View from above satellite

Ground track
Ground track

The orbit data is extracted from the following two-line orbital elements,

1  4368U 70027B   17166.00298448 +.00000785 +00000-0 +00000-0 0  9993
2  4368 042.6293 199.0001 6881380 069.8483 000.3067 00.21515864030608
Epoch (UTC): 15 June 2017 00:04:17
Eccentricity: 0.6881380
inclination: 42.6293°
perigee height: 30309 km
apogee height: 192216 km
right ascension of ascending node: 199.0001°
argument of perigee: 69.8483°
revolutions per day: 0.21515864
mean anomaly at epoch: 0.3067°
orbit number at epoch: 3060

The dashed part of the orbit path shows where the satellite is in the earth's shadow,  

DLR